STARLINK-1524, 46047

Orbit data source: Space-Track

STARLINK-1524, 46047 is a payload satellite owned by SpaceX/Seattle (US) in LEO that was launched on Fri, 07 Aug 2020 UTC via an FALCON 9 launch vehicle from the Air Force Eastern Test Range (AFETR). Payload-class satellites include a variety of spacecraft equipped with specific instruments for various scientific and technological missions. These include communications satellites like Starlink; space stations such as the ISS; scientific satellites like the Hubble; Earth observation satellites from companies like Planet Labs, Umbra, and HawkEye 360; GPS; miniature CubeSats for education and research; and military/defense satellites.

Loading next visibility...
Identifier
46047, 2020-055W
Orbit
LEO
Country
Flag of USUS
Related business
Manufacturer
SpaceX/Seattle
Mission
Operational Commercial Communications
Bus & Motor
STARLINK, Unknown motor
Mass
260 kg wet, ~248 kg dry
Launch date (UTC)
2020-08-07 (5 years ago)
Launch vehicle
FALCON 9
Launch site
Air Force Eastern Test Range (AFETR)
Object type
Payload
Rocket body
Debris
Shape & HBR
Box + 1 Pan, 10.1 m
Radar Cross Section
13.562 m², Large (>1 m²)

Expand to show TLE details & history
Last TLE update: 11 hours ago

TLE from 11 hours ago
0 STARLINK-1524
1 46047U 20055W   25340.91787519 -.00001700  00000-0 -95268-4 0  9998
2 46047  53.0552 173.0906 0001635  98.3128 261.8046 15.06391022295041
Epoch: 2025-12-06T22:01Z
TLE epoch observation values (Epoch: 2025-12-06T22:01:44.416Z)
Latitude
-0.00005°
Longitude
126.71677°
Altitude
548.28 km
Speed
7.589 km/s
True Right ascension
11h 32m 21s
True Declination
0° 00' 00"
Sunlit
Object was in daylight at epoch
Visualization orbit readout
Latitude
Unknown
Longitude
Unknown
Altitude
Unknown
Speed
Unknown
Apparent Right ascension
Unknown
Apparent Declination
Unknown
Sunlit
N/A
Visualization observer readout
Local Sidereal Time
06:38:31
Azimuth
Unknown
Elevation
Unknown
Doppler factor
Unknown
Orbital elements
Apogee altitude
548.642 km
Perigee altitude
546.377 km
Semi-major axis
6,925.647 km
Eccentricity
0.00016
Inclination
53.0552°
RAAN
173.0906°
Arg. of periapsis
98.3128°
True anomaly
261.78606°
Mean anomaly
261.8046°
Eccentric anomaly
261.79533°
Mean motion
3.76576 °/min
Orbital period
95.6 mins
BSTAR
-0.000095268
Loading maneuver chart data...
Computing Atmospheric mass density...

Documentation

Showing up to 5 results
|